Hourly Data Report for June 05, 2019

BORDEN AWOS
ONTARIO
Current Station Operator: DND

44°16'20.000" N
79°54'42.000" W
222.50 m
611B002
71534
YBN

Download Data

Hourly Data (June 2019)
Hourly Data Report for June 5, 2019
TIME
LST
Temp Definition
°C
Dew Point Definition
°C
Rel Hum Definition
%
Precip. Amount Definition
mm

Wind Dir Definition
10's deg

Wind Spd Definition
km/h
Visibility Definition
km
Stn Press Definition
kPa
Hmdx Definition


Wind Chill Definition


Weather Definition


00:00 11.1 10.9 99   13 4 14.5 98.24     LegendNANA
01:00
02:00 8.2 8.2 100   29 4 6.4 98.26     LegendNANA
03:00 8.8 8.6 99   22 6 14.5 98.19     LegendNANA
04:00 9.4 9.4 100   10 4 14.5 98.20     LegendNANA
05:00 9.7 9.7 100   6 4 14.5 98.22     LegendNANA
06:00 11.2 11.2 100   9 6 14.5 98.19     LegendNANA
07:00 13.6 12.7 94   35 4 14.5 98.19     LegendNANA
08:00 16.9 14.1 84   14 6 14.5 98.11     LegendNANA
09:00 18.8 15.0 79   13 11 14.5 98.03     LegendNANA
10:00 20.2 15.7 75   15 9 14.5 97.97 25   LegendNANA
11:00 18.2 17.0 93   12 11 9.7 97.99     Rain
12:00 17.8 17.0 95   5 9 6.4 97.93     Rain
13:00
14:00
15:00 18.0 17.6 98   12 9 4.0 97.90     Rain
16:00 17.2 16.7 97   13 15 4.8 97.91     Rain
17:00 16.1 15.5 96   14 11 4.8 97.91     Rain
18:00 15.8 15.7 99   7 6 5.6 97.94     Rain
19:00 15.5 15.3 99   16 4 4.0 97.96     Rain
20:00 15.5 15.4 99     0 3.1 98.02     Rain
21:00 14.7 14.7 100   32 7 1.6 98.08     LegendNANA
22:00 13.9 13.9 100     0 1.8 98.09     LegendNANA
23:00 13.4 13.4 100   34 4 0.6 98.11     LegendNANA

Notes on Data Quality.

Legend

  • E = Estimated
  • M = Missing
  • NA = Not Available*
  • [empty] = Indicates an unobserved value
Date modified: